Bloomington, IN

12:07 AM EDT on September 25, 2016 (GMT -0400)
Monroe County

Weather History for KBMG - November, 2014

Change the Weather History Date:

Tuesday, November 4, 2014

  Actual Average Record
Temperature  
Mean Temperature 53 °F 49 °F  
Max Temperature 58 °F 60 °F 78 °F (2003)
Min Temperature 47 °F 38 °F 26 °F (1996)
Degree Days  
Heating Degree Days 12 16  
Month to date heating degree days 80 63  
Since 1 July heating degree days 511 482  
Cooling Degree Days 0 0  
Month to date cooling degree days 0 0  
Year to date cooling degree days 904 926  
Growing Degree Days 2 (Base 50)    
Moisture  
Dew Point 44 °F    
Average Humidity 67    
Maximum Humidity 100    
Minimum Humidity 33    
Precipitation  
Precipitation 0.40 in 0.15 in 0.40 in (2014)
Month to date precipitation 0.40 0.60  
Year to date precipitation 40.57 40.67  
Sea Level Pressure  
Sea Level Pressure 30.12 in    
Wind  
Wind Speed 10 mph (SW)    
Max Wind Speed 23 mph    
Max Gust Speed 34 mph    
Visibility 6 miles    
Events Rain    
T = Trace of Precipitation, MM = Missing Value Source: NWS Daily Summary

Daily Weather History Graph

Daily Weather History Graph

Search for Another Location

Airport or City:

Trip Planner

Search our weather history database for the weather conditions in past years. The results will help you decide how hot, cold, wet, or windy it might be!

Date:

Astronomy

Nov. 04, 2014 Rise Set
Actual Time 7:17 AM EST 5:42 PM EST
Civil Twilight 6:49 AM EST 6:10 PM EST
Nautical Twilight 6:17 AM EST 6:41 PM EST
Astronomical Twilight 5:46 AM EST 7:13 PM EST
Moon 4:27 PM EST (11/4) 4:35 AM EST (11/4)
Length of Visible Light 11h 20m
Length of Day
10h 24m
Waxing Gibbous, 94% of the Moon is Illuminated
Nov 4
Waxing Gibbous
Nov 6
Full
Nov 14
Last Quarter
Nov 22
New
Nov 29
First Quarter

Hourly Weather History & Observations

Time (EST) Temp. Dew Point Humidity Pressure Visibility Wind Dir Wind Speed Gust Speed Precip Events Conditions
12:53 AM 55.9 °F 28.9 °F 36% 30.16 in 10.0 mi SW 13.8 mph - N/A   Clear
1:53 AM 55.0 °F 30.0 °F 38% 30.14 in 10.0 mi SSW 13.8 mph 21.9 mph N/A   Clear
2:53 AM 55.0 °F 30.9 °F 40% 30.14 in 10.0 mi SW 11.5 mph 24.2 mph N/A   Clear
3:53 AM 55.0 °F 30.9 °F 40% 30.13 in 10.0 mi SW 11.5 mph - N/A   Clear
4:53 AM 54.0 °F 30.9 °F 41% 30.12 in 10.0 mi SSW 11.5 mph - N/A   Clear
5:53 AM 55.0 °F 30.9 °F 40% 30.12 in 10.0 mi SW 11.5 mph 20.7 mph N/A   Mostly Cloudy
6:53 AM 55.0 °F 30.9 °F 40% 30.11 in 10.0 mi SSW 12.7 mph 19.6 mph N/A   Overcast
7:53 AM 55.0 °F 32.0 °F 42% 30.12 in 10.0 mi SSW 12.7 mph 21.9 mph N/A   Overcast
8:53 AM 55.9 °F 33.1 °F 42% 30.12 in 10.0 mi SSW 10.4 mph - N/A   Overcast
9:49 AM 55.4 °F 35.6 °F 47% 30.13 in 10.0 mi SW 15.0 mph 21.9 mph N/A   Overcast
9:53 AM 55.9 °F 35.1 °F 45% 30.12 in 10.0 mi SW 11.5 mph 21.9 mph N/A   Overcast
10:53 AM 54.0 °F 42.1 °F 64% 30.12 in 10.0 mi SW 13.8 mph 23.0 mph N/A   Overcast
11:53 AM 52.0 °F 45.0 °F 77% 30.11 in 10.0 mi SW 18.4 mph 24.2 mph 0.00 in   Overcast
12:26 PM 51.1 °F 48.0 °F 89% 30.11 in 2.0 mi SW 16.1 mph 20.7 mph 0.01 in Rain Light Rain
12:34 PM 51.1 °F 48.0 °F 89% 30.11 in 2.0 mi SW 13.8 mph 20.7 mph 0.01 in Rain Light Rain
12:49 PM 51.8 °F 48.2 °F 88% 30.11 in 3.0 mi SW 10.4 mph 19.6 mph 0.02 in Rain Light Rain
12:53 PM 51.1 °F 48.9 °F 92% 30.11 in 3.0 mi SW 16.1 mph 21.9 mph 0.02 in Rain Light Rain
1:41 PM 51.1 °F 50.0 °F 96% 30.09 in 1.8 mi SW 11.5 mph - 0.01 in Rain Light Rain
1:53 PM 51.1 °F 50.0 °F 96% 30.08 in 1.5 mi SW 10.4 mph - 0.02 in Rain Light Rain
2:07 PM 51.1 °F 50.0 °F 96% 30.08 in 2.0 mi SW 9.2 mph - 0.01 in Rain Light Rain
2:16 PM 51.1 °F 50.0 °F 96% 30.08 in 1.8 mi SW 11.5 mph - 0.01 in Rain Light Rain
2:27 PM 51.1 °F 50.0 °F 96% 30.08 in 2.0 mi SW 11.5 mph - 0.02 in Rain Light Rain
2:39 PM 51.1 °F 50.0 °F 96% 30.09 in 1.8 mi SW 10.4 mph - 0.03 in Rain Light Rain
2:53 PM 51.1 °F 50.0 °F 96% 30.09 in 1.8 mi SSW 9.2 mph - 0.06 in Rain Light Rain
3:08 PM 51.1 °F 50.0 °F 96% 30.09 in 2.0 mi SW 10.4 mph - 0.01 in Rain Light Rain
3:28 PM 51.1 °F 50.0 °F 96% 30.09 in 3.0 mi WSW 8.1 mph - 0.03 in Rain Light Rain
3:40 PM 51.1 °F 50.0 °F 96% 30.10 in 2.5 mi SW 9.2 mph - 0.04 in Rain Light Rain
3:53 PM 51.1 °F 50.0 °F 96% 30.09 in 2.5 mi SW 6.9 mph - 0.06 in Rain Rain
4:09 PM 51.1 °F 51.1 °F 100% 30.09 in 3.0 mi WSW 9.2 mph - 0.01 in Rain Light Rain
4:53 PM 52.0 °F 51.1 °F 97% 30.10 in 4.0 mi WSW 8.1 mph - 0.02 in Rain Light Rain
5:53 PM 52.0 °F 51.1 °F 97% 30.11 in 5.0 mi SW 8.1 mph - 0.09 in Rain Rain
6:53 PM 51.1 °F 50.0 °F 96% 30.12 in 6.0 mi WSW 8.1 mph - 0.07 in Rain Rain
7:53 PM 51.1 °F 50.0 °F 96% 30.14 in 10.0 mi WSW 6.9 mph - 0.04 in Rain Light Rain
8:53 PM 51.1 °F 50.0 °F 96% 30.16 in 10.0 mi WNW 5.8 mph - 0.02 in   Overcast
9:53 PM 50.0 °F 48.9 °F 96% 30.17 in 10.0 mi WNW 5.8 mph - N/A   Overcast
10:35 PM 48.9 °F 48.0 °F 97% 30.17 in 9.0 mi Variable 3.5 mph - N/A   Scattered Clouds
10:42 PM 48.9 °F 46.9 °F 93% 30.18 in 9.0 mi WNW 8.1 mph - N/A   Mostly Cloudy
10:53 PM 48.9 °F 46.9 °F 93% 30.18 in 9.0 mi WNW 3.5 mph - N/A   Scattered Clouds
11:07 PM 48.0 °F 46.9 °F 96% 30.18 in 8.0 mi WNW 4.6 mph - N/A   Mostly Cloudy
11:19 PM 48.0 °F 46.0 °F 93% 30.18 in 8.0 mi WNW 4.6 mph - N/A   Mostly Cloudy
11:53 PM 46.9 °F 46.0 °F 97% 30.18 in 6.0 mi WNW 3.5 mph - N/A   Scattered Clouds